Regional Weather Roundup
Issued by NWS Kansas City/Pleasant Hill, MO

Home | Current Version | Previous Version | Graphics & Text | Print | Product List | Glossary Off
Versions: 1 2 3 4 5 6 7 8 9 10 11 12 13 14 15 16 17 18 19 20 21 22 23 24 25 26 27 28 29 30 31 32 33 34 35 36 37 38 39 40 41 42 43 44 45 46 47 48 49 50

000
ASUS43 KEAX 310810
RWREAX

WEATHER ROUNDUP FOR EASTERN KANSAS AND NORTHWEST MISSOURI
NATIONAL WEATHER SERVICE KANSAS CITY/PLEASANT HILL MO
300 AM CDT FRI JUL 31 2015

KSZ040-057-103>105-MOZ028-029-037-043-310900-
...KANSAS CITY METROPOLITAN AREA...

CITY           SKY/WX    TMP DP  RH WIND       PRES   REMARKS
K.C. INTL      PTCLDY    68  61  78 SW6       30.17S
K.C. DOWNTOWN  CLEAR     70  66  87 CALM      30.16S
LEES SUMMIT    CLEAR     66  62  87 SW3       30.17F
OLATHE - IXD   CLEAR     65  61  87 CALM      30.18S
OLATHE - OJC   CLEAR     66  62  87 CALM      30.17S
LAWRENCE       PTCLDY    62  60  93 CALM      30.17S

$$

MOZ001>008-011>017-020>025-030>033-038>040-044>046-053-054-310900-
...NORTHERN AND CENTRAL MISSOURI...

CITY           SKY/WX    TMP DP  RH WIND       PRES   REMARKS
ST. JOSEPH     FOG       65  65 100 CALM      30.16S VSB 3/4
MOSBY          SUNNY     63  63 100 CALM      30.15F
WARRENSBURG    FOG       64  63  94 CALM      30.15F VSB 3/4
WHITEMAN AFB   CLEAR     66  63  92 S5        30.15F
CLINTON        CLEAR     64  64 100 CALM      30.17S
SEDALIA        CLEAR     68  62  81 CALM      30.17F
WARSAW         NOT AVBL
CHILLICOTHE      N/A     68  66  93 CALM      30.16F
KIRKSVILLE     PTCLDY    67  63  87 W5        30.16S

$$

MOZ041-047>049-056>058-063>065-088>090-097-310900-
...EASTERN AND SOUTHERN MISSOURI...

CITY           SKY/WX    TMP DP  RH WIND       PRES   REMARKS
ST. LOUIS INTL CLEAR     74  65  73 W3        30.13S
SPIRIT OF STL  CLEAR     66  66 100 W3        30.12S
COLUMBIA       CLEAR     71  66  84 W3        30.16S
JEFFERSON CITY CLEAR     68  65  90 CALM      30.15S
ROLLA          CLEAR     67  62  84 CALM      30.16S HAZE
OSAGE BEACH    CLEAR     64  61  88 CALM      30.17S
SPRINGFIELD    PTCLDY    72  63  73 CALM      30.16F
BRANSON        PTCLDY    66  64  94 CALM      30.17S
JOPLIN         MOCLDY    73  64  73 E5        30.15S
WEST PLAINS    CLEAR     65  61  87 CALM      30.17F

$$

IAZ060-094-KSZ022-034>040-054-083-096-NEZ052-066-093-310900-
...KANSAS...SOUTHEAST NEBRASKA AND IOWA...

CITY           SKY/WX    TMP DP  RH WIND       PRES   REMARKS
TOPEKA         PTCLDY    66  63  90 CALM      30.17S
MANHATTAN      MOCLDY    65  64  97 CALM      30.17S
EMPORIA        CLEAR     67  65  93 CALM      30.18R
CHANUTE        CLOUDY    67  65  93 CALM      30.15S
WICHITA        MOCLDY    74  66  76 E3        30.16S
OMAHA          PTCLDY    72  66  81 CALM      30.14S
LINCOLN        CLEAR     69  62  78 CALM      30.16S
FALLS CITY     PTCLDY    69  63  81 S6        30.15S
LAMONI         MOCLDY    70  63  78 SW8       30.15S
DES MOINES     PTCLDY    71  64  78 SW5       30.11F

$$




USA.gov is the U.S. government's official web portal to all federal, state and local government web resources and services.